Regional Weather Roundup
Issued by NWS Newport/Morehead, NC

Current Version | Previous Version | Graphics & Text | Print | Product List | Glossary Off
Versions: 1 2 3 4 5 6 7 8 9 10 11 12 13 14 15 16 17 18 19 20 21 22 23 24 25 26 27 28 29 30 31 32 33 34 35 36 37 38 39 40 41 42 43 44 45 46 47 48 49 50

000
ASUS42 KMHX 201313
RWRMHX
WEATHER ROUNDUP FOR EASTERN NORTH CAROLINA
NATIONAL WEATHER SERVICE NEWPORT/MOREHEAD CITY NC
900 AM EDT FRI APR 20 2018

NOTE: "FAIR" INDICATES FEW OR NO CLOUDS BELOW 12,000 FEET
WITH NO SIGNIFICANT WEATHER AND/OR OBSTRUCTIONS TO VISIBILITY

NCZ015>017-031-032-045>047-102-103-201400-
NORTH COAST

CITY           SKY/WX    TMP DP  RH WIND       PRES   REMARKS
EDENTON        FAIR      50  33  52 N12G17    30.32R
ELIZABETH CITY FAIR      49  32  52 NW12      30.30R
KITTY HAWK     FAIR      48  27  44 NW9G16    30.28R
MANTEO         FAIR      49  28  45 N12G17    30.29S

$$

NCZ045>047-081-094-103-104-201400-
CENTRAL COAST

CITY           SKY/WX    TMP DP  RH WIND       PRES   REMARKS
FRISCO         FAIR      52  30  43 VRB7G21   30.28R

$$

NCZ095-097-098-100-101-201400-
SOUTHERN COAST

CITY           SKY/WX    TMP DP  RH WIND       PRES   REMARKS
BEAUFORT       FAIR      52  29  41 N14       30.32R
CEDAR ISLAND   NOT AVBL
JACKSONVILLE   FAIR      51  32  48 N7        30.33R
PINEY ISLAND   NOT AVBL
WILMINGTON     FAIR      51  31  46 NE9       30.34R


$$

NCZ011>013-027>030-043-044-078>080-089-090>093-098-201400-
COASTAL PLAIN

CITY           SKY/WX    TMP DP  RH WIND       PRES   REMARKS
AHOSKIE        FAIR      46  29  52 N13       30.34R
CLINTON        FAIR      49  32  51 N3        30.36R
ELIZABETHTOWN  FAIR      49  30  48 MISG      30.35S
GOLDSBORO      FAIR      51  31  46 NW6       30.32S
GREENVILLE     FAIR      50  32  50 N7        30.33S
HAVELOCK       SUNNY     53  30  41 N10       30.33
KENANSVILLE    FAIR      48  32  53 N6        30.34S
KINSTON        FAIR      50  32  50 NW7       30.34R
NEW BERN       FAIR      50  32  50 N10       30.34R
RICHLANDS      FAIR      50  34  54 VRB5      30.34R
ROCKY MOUNT    FAIR      49  33  54 NW9       30.34R
WASHINGTON     FAIR      49  31  50 CALM      30.33S
WHITEVILLE     FAIR      49  31  49 N6        30.34S

$$

AMZ130-135-150-152-154-156-158-170-250-252-270-ANZ085-086-088-633-658-670-201400-
MARINE OBSERVATIONS

STATION/POSITION TIME  TEMP    WIND        PRES    WAVE   SWELL
                       AIR SEA DIR/SP/G            HT/PER HT/PER
                 (UTC) (F)     (DEG/KT/KT) (MB)    (FT/S) (FT/S)
CHESAPEAKE LIGHT NOT AVBL
64 E VA BEACH    1250   45 49  340/ 17/ 23 1024.5    6/ 6
DUCK             1242   47 51  330/ 15/ 19 1024.9
2 E DUCK         1230      49                N/A     5/ 6   2/14
OREGON INLET     1242   48 56  320/ 13/ 19 1025.4
13E OREGON INLT  1248      52                N/A     7/ 7   5/ 7
HATTERAS CG      1242   50 61  360/ 18/ 24 1025.2
DIAMOND BUOY     1250   52 71  360/ 21/ 27 1025.5    6/ 9   3/ 9
CAPE LOOKOUT     1200           10/ 13/ 15 1026.1
BEAUFORT LAB     1242   50 62   10/ 11/ 13 1026.6
30 SE NEW RVR IN 1208   53 65   60/ 17/ 23 1025.8
30 SE NEW RVR IN 1230      65                N/A     6/ 5   2/11
27 SE WRIGHTSVLE 1208   53 65   50/ 23/ 33 1026.5
5 SE WRIGHTSVLE  1208   51 60   30/ 16/ 21 1025.8
225 S CAPE HAT   1250   67 71   40/ 19/ 25 1020.6    9/ 7   2/15
41 SE CHARLESTON 1250   58      40/ 23/ 29 1024.5    8/ 7

$$




USA.gov is the U.S. government's official web portal to all federal, state and local government web resources and services.